Main page


Airports :

Mahshahr, Iran

Mahshahr Airport

latitude: 30-33-23N, longitude: 049-09-07E, elevation: 2 m

Current weather observation

The report was made 1 hour and 1 minutes ago, at 09:00 UTC
Wind 12 kt from the North/Northwest
Temperature 24°C
Humidity 29%
Pressure 1012 hPa
Visibility 10 km or more
no clouds below 1500 m and no cumulonimbus

METAR: OIAM 180900Z 33012KT CAVOK 24/05 Q1012

Time: 13:31 (10:01 UTC)

TAF: missing

Weather observations and forecasts of more than 4000 airports (METAR and TAF reports).

The available stations are represented by yellow and red dots on the map.

Hover mouse over dot to see the name of the station.

Then click to see weather observations and forecasts.

To change the map : click on the green buttons with a black cross to zoom in, on the green button with a dash to zoom out, or on the green arrows for adjacent maps.